Orbital Elements at Epoch 2459200.5 (2020-Dec-17.0) TDB
Reference: JPL 26 (heliocentric ecliptic J2000)
Element | Value | Uncertainty (1-sigma) | Units |
e | .05750635095367711 | 5.6987e-08 | |
a | 5.153466723117698 | 1.0033e-07 | au |
q | 4.857109657109995 | 3.4688e-07 | au |
i | 17.98544992492952 | 6.1911e-06 | deg |
node | 327.0154535958877 | 1.4425e-05 | deg |
peri | 64.63503846859832 | 5.7096e-05 | deg |
M | 351.5570647774497 | 5.1629e-05 | deg |
tp | 2459300.716353750864 (2021-Mar-27.21635375) | 0.00061166 | TDB |
period | 4273.145108818359 11.70 | 0.00012479 3.417e-07 | d yr |
n | .08424708050683301 | 2.4604e-09 | deg/d |
Q | 5.449823789125401 | 1.061e-07 | au |
|
| | Orbit Determination Parameters
Additional Information
|